Probability
6 0 0 0 0 0 0 0 0 0 0 0 0 0 0 0 0 0 3 10 26 35 55 71 84 84 81 77 81 81 74 77 74 74 74 71 74 74 74 65 61 71 65 61 61 71 65 68 65
0 0 0 0 0 0 0 0 0 0 0 0 0 0 0 23 16 13 13 29 29 42 52 68 87 81 81 77 81 77 77 77 77 77 74 68 68 68 71 61 61 61 65 61 61 61 68 68 68
0 0 0 0 0 0 0 0 0 0 0 0 3 6 13 26 29 23 16 26 32 39 35 65 84 87 81 74 71 68 68 68 71 68 65 61 61 68 65 58 58 61 61 61 55 61 61 61 65
0 0 0 0 0 0 0 0 0 0 0 3 3 13 16 26 35 23 26 32 32 32 39 58 90 84 81 71 68 68 68 71 68 65 65 65 61 58 58 52 52 52 55 58 58 61 65 65 65
0 0 0 0 0 0 0 0 0 0 0 3 10 16 19 29 32 23 29 29 29 35 48 52 81 87 77 71 68 68 71 71 71 68 71 61 61 61 65 48 45 42 48 52 55 55 55 58 58
0 0 0 0 0 0 0 0 0 0 3 10 13 13 16 29 29 29 29 26 26 39 45 55 84 81 77 68 68 71 74 71 68 68 68 74 77 68 58 48 42 48 48 52 48 55 55 55 61
0 0 0 0 0 0 0 0 0 3 6 16 13 16 19 23 19 19 19 16 32 39 45 45 61 71 74 71 68 71 74 74 71 74 74 68 68 61 55 52 45 48 61 58 55 52 55 61 58
0 0 0 0 0 0 0 0 0 6 10 13 19 19 19 19 16 16 19 23 26 35 35 39 48 52 55 55 65 68 68 65 71 68 68 68 61 65 61 61 65 52 55 45 52 61 45 58 61
0 0 0 0 0 0 0 0 6 6 13 19 19 23 23 26 19 23 23 26 26 32 29 26 35 39 45 45 61 58 58 58 58 45 58 45 35 35 35 45 58 55 55 55 58 48 48 48 55
0 0 0 0 0 0 0 3 6 10 16 13 19 23 35 32 19 23 19 19 23 29 32 26 26 32 39 42 42 42 42 32 29 29 26 23 16 16 29 29 48 52 58 61 58 55 52 32 23
0 0 0 0 0 0 0 3 6 10 10 16 13 19 32 29 26 23 19 16 19 26 29 26 26 26 23 23 35 26 23 23 23 23 16 10 10 13 19 29 29 32 35 26 26 23 19 16 16
0 0 0 0 0 0 0 6 6 10 10 13 10 19 26 26 23 23 23 16 19 19 23 19 23 19 16 19 23 16 16 19 19 19 10 10 10 10 13 13 13 13 13 13 13 10 6 13 13
0 0 0 0 0 0 3 6 6 10 6 6 13 19 23 23 23 23 26 13 10 16 19 23 23 16 13 13 16 13 13 16 16 3 6 6 6 6 6 10 13 13 13 6 13 3 6 6 6
0 0 0 0 0 3 6 10 10 13 10 10 16 19 23 23 19 16 19 10 13 19 19 23 23 19 16 16 13 16 13 13 16 6 6 6 6 6 6 6 6 6 6 10 6 6 6 6 6
0 0 0 0 0 0 3 10 13 13 10 10 10 16 19 19 16 16 13 16 13 13 16 16 19 16 19 16 13 16 13 13 13 6 3 3 3 10 10 10 10 6 6 6 6 3 3 3 6
0 0 0 0 0 0 0 0 10 10 6 10 6 10 16 19 16 13 13 16 16 13 13 13 16 16 19 16 13 13 16 10 10 3 3 6 6 6 6 6 3 3 3 3 6 3 3 3 3
0 0 0 0 0 0 0 0 10 13 6 6 6 10 13 16 13 13 13 16 16 16 16 13 13 10 13 13 13 13 13 10 6 3 3 6 10 6 6 3 3 3 0 0 3 6 6 6 6
0 0 0 0 0 0 0 0 6 6 10 6 10 10 13 13 10 6 13 19 16 16 16 16 16 10 13 13 13 13 6 6 0 6 10 10 10 6 3 0 0 3 6 6 3 3 0 3 3
0 0 0 0 0 0 0 6 6 10 13 6 10 10 10 13 13 10 10 16 16 16 16 23 16 13 13 13 13 13 10 6 6 10 13 10 10 10 10 6 6 6 6 6 3 10 6 6 6
0 0 0 0 0 0 0 0 6 10 10 13 19 16 10 10 10 10 10 13 13 16 19 19 13 13 13 13 13 10 10 6 6 13 13 13 10 10 10 6 6 6 6 6 6 3 6 3 6
0 0 0 0 0 0 0 0 0 6 6 10 10 16 13 16 6 6 10 13 13 13 19 29 16 13 13 16 13 10 10 10 10 13 13 13 13 10 10 6 6 6 6 6 6 3 6 6 3
0 0 0 0 0 0 0 0 0 3 3 10 10 10 13 13 13 13 13 16 16 16 19 23 23 19 16 16 16 16 16 10 10 13 13 13 13 13 10 6 6 6 6 6 6 3 3 6 3
0 0 0 0 0 0 0 0 0 0 3 3 13 13 10 10 10 10 13 16 16 19 23 23 26 26 23 16 13 16 13 10 10 10 13 10 10 10 10 6 6 6 6 6 6 3 3 0 3
0 0 0 0 0 0 0 0 0 0 3 3 10 10 6 10 13 10 13 19 26 19 23 19 23 26 23 19 13 13 10 10 10 10 10 6 6 10 10 10 6 6 6 6 6 6 3 6 0
0 0 0 0 0 0 0 0 0 0 0 3 10 6 3 6 13 13 16 16 23 26 23 16 16 16 19 19 16 10 10 10 10 10 10 6 6 6 10 10 10 6 6 6 6 10 10 10 6
0 0 0 0 0 0 0 0 0 0 6 6 3 6 3 3 6 13 16 16 23 23 23 26 13 13 16 10 13 6 6 6 6 10 10 3 6 6 6 3 10 13 10 10 6 6 10 10 6
0 0 0 0 0 0 0 0 0 3 6 3 3 6 3 6 10 13 10 16 26 23 19 19 13 10 13 13 13 3 3 3 0 3 6 3 3 3 3 6 6 10 10 10 10 6 10 10 6
0 0 0 0 0 0 0 0 0 6 3 3 3 6 6 10 6 6 6 16 16 19 13 13 13 10 13 19 16 6 3 3 3 3 6 6 6 6 3 3 6 6 3 3 3 6 10 10 6
0 0 0 0 0 0 0 0 0 0 3 3 3 3 3 6 6 10 10 16 16 10 13 13 13 13 13 16 19 16 6 3 3 6 10 10 6 6 6 6 6 10 6 6 3 3 6 10 10
0 0 0 0 0 0 0 0 0 0 3 3 3 3 3 6 10 13 13 16 16 6 10 10 10 10 10 16 16 13 6 6 6 10 10 10 6 6 6 6 6 10 10 3 3 3 6 3 3
Height
5895 5895 5896 5897 5898 5897 5895 5895 5894 5893 5893 5892 5891 5890 5890 5890 5889 5890 5887 5884 5883 5882 5881 5879 5878 5876 5876 5875 5874 5874 5873 5873 5872 5872 5872 5871 5871 5871 5871 5871 5871 5870 5870 5870 5870 5871 5871 5871 5872
5895 5896 5897 5898 5897 5896 5896 5895 5895 5894 5893 5893 5892 5891 5891 5890 5889 5888 5886 5884 5882 5881 5880 5879 5878 5877 5876 5875 5875 5874 5874 5873 5873 5873 5872 5872 5872 5871 5871 5871 5871 5871 5870 5870 5870 5871 5871 5872 5872
5895 5896 5898 5898 5897 5897 5897 5896 5895 5895 5894 5893 5893 5892 5892 5891 5890 5889 5887 5883 5880 5880 5880 5880 5878 5877 5877 5876 5875 5874 5874 5874 5873 5873 5873 5873 5872 5872 5871 5871 5871 5871 5870 5869 5870 5871 5872 5872 5872
5895 5897 5898 5898 5897 5897 5896 5896 5896 5895 5894 5894 5894 5893 5892 5892 5890 5889 5887 5884 5882 5882 5881 5880 5879 5878 5877 5876 5875 5875 5874 5874 5873 5873 5873 5873 5872 5872 5872 5871 5871 5871 5870 5870 5870 5871 5871 5872 5872
5894 5896 5897 5897 5896 5896 5896 5896 5896 5895 5895 5894 5894 5893 5893 5892 5891 5889 5888 5886 5885 5883 5882 5881 5880 5879 5878 5877 5876 5875 5874 5874 5874 5873 5873 5873 5872 5872 5872 5872 5871 5871 5871 5871 5871 5871 5872 5872 5872
5894 5894 5896 5896 5896 5896 5895 5895 5896 5895 5895 5895 5894 5894 5893 5892 5891 5890 5889 5887 5886 5884 5883 5881 5880 5879 5878 5877 5876 5875 5875 5874 5874 5873 5873 5873 5872 5872 5872 5872 5871 5871 5871 5871 5871 5872 5872 5872 5872
5893 5893 5894 5895 5895 5895 5895 5895 5895 5895 5895 5894 5894 5894 5893 5892 5891 5890 5889 5888 5887 5885 5884 5882 5881 5880 5879 5878 5877 5876 5875 5874 5874 5873 5873 5873 5872 5872 5872 5871 5871 5871 5871 5871 5871 5872 5872 5872 5872
5890 5892 5893 5893 5894 5894 5894 5893 5894 5894 5895 5894 5894 5894 5893 5893 5891 5891 5889 5888 5887 5886 5884 5883 5881 5880 5879 5879 5878 5877 5876 5875 5874 5874 5873 5873 5872 5872 5872 5871 5871 5871 5871 5871 5871 5871 5871 5872 5872
5889 5891 5891 5892 5892 5892 5892 5892 5893 5893 5894 5893 5893 5893 5893 5892 5891 5891 5890 5889 5887 5886 5885 5883 5882 5881 5880 5879 5878 5877 5876 5875 5874 5874 5873 5873 5872 5872 5872 5871 5871 5871 5871 5871 5871 5871 5871 5871 5872
5887 5889 5890 5890 5890 5890 5890 5891 5891 5892 5892 5892 5892 5892 5892 5892 5891 5890 5889 5888 5887 5886 5885 5884 5883 5881 5880 5880 5879 5878 5876 5875 5874 5874 5873 5872 5872 5871 5871 5871 5871 5871 5871 5871 5871 5871 5871 5871 5871
5884 5886 5887 5888 5888 5888 5888 5889 5890 5890 5891 5891 5891 5891 5891 5891 5891 5890 5889 5888 5887 5886 5885 5884 5883 5882 5881 5880 5878 5878 5876 5875 5874 5874 5873 5872 5872 5871 5871 5871 5871 5871 5871 5871 5871 5871 5871 5870 5870
5882 5884 5885 5886 5886 5887 5887 5887 5888 5889 5890 5890 5890 5890 5890 5890 5889 5888 5888 5887 5886 5886 5885 5884 5882 5881 5881 5879 5878 5877 5876 5875 5874 5873 5873 5872 5871 5871 5870 5870 5870 5870 5870 5870 5870 5870 5870 5870 5869
5879 5881 5882 5883 5884 5884 5884 5885 5886 5887 5887 5887 5887 5888 5888 5888 5888 5887 5887 5886 5885 5885 5884 5883 5882 5881 5880 5879 5878 5877 5876 5875 5874 5873 5872 5872 5871 5870 5870 5870 5870 5870 5870 5869 5869 5869 5869 5869 5868
5876 5878 5880 5880 5881 5881 5882 5883 5884 5885 5884 5885 5885 5886 5886 5886 5886 5886 5885 5885 5884 5883 5883 5882 5881 5880 5880 5879 5878 5876 5875 5874 5873 5872 5872 5871 5870 5870 5870 5870 5869 5869 5869 5869 5868 5868 5868 5867 5867
5873 5875 5877 5878 5878 5878 5879 5880 5881 5882 5882 5883 5883 5883 5884 5884 5884 5884 5883 5883 5882 5882 5881 5880 5880 5879 5878 5877 5877 5876 5875 5874 5873 5872 5871 5871 5870 5869 5869 5869 5868 5868 5868 5868 5867 5867 5867 5866 5865
5870 5872 5873 5874 5874 5875 5877 5878 5879 5878 5879 5880 5880 5881 5881 5882 5882 5881 5881 5881 5880 5880 5879 5879 5878 5878 5877 5876 5876 5875 5874 5873 5873 5872 5871 5870 5869 5868 5868 5867 5867 5867 5867 5867 5866 5866 5866 5865 5864
5866 5867 5869 5871 5871 5871 5872 5874 5875 5875 5875 5876 5877 5878 5879 5879 5879 5879 5879 5878 5878 5877 5877 5877 5876 5876 5875 5875 5874 5874 5873 5872 5872 5871 5870 5869 5868 5868 5867 5866 5866 5866 5866 5865 5865 5864 5864 5863 5862
5862 5863 5865 5866 5866 5866 5867 5869 5871 5871 5871 5873 5873 5874 5875 5875 5875 5875 5875 5875 5875 5875 5875 5874 5874 5874 5873 5873 5872 5872 5872 5871 5870 5870 5869 5868 5867 5866 5866 5865 5865 5865 5864 5864 5863 5863 5862 5861 5860
5857 5858 5860 5862 5861 5862 5863 5864 5866 5867 5867 5868 5869 5870 5871 5871 5871 5871 5871 5871 5872 5872 5872 5872 5871 5871 5871 5870 5870 5870 5870 5869 5869 5868 5867 5866 5866 5865 5864 5864 5863 5863 5863 5862 5861 5861 5860 5859 5858
5852 5853 5855 5856 5856 5856 5858 5859 5861 5862 5863 5864 5864 5865 5866 5867 5867 5867 5867 5867 5868 5868 5869 5869 5868 5868 5868 5868 5868 5867 5867 5867 5867 5866 5865 5865 5864 5863 5862 5862 5861 5861 5861 5860 5859 5859 5858 5857 5856
5847 5848 5849 5850 5851 5851 5853 5854 5856 5857 5858 5858 5859 5860 5861 5862 5862 5863 5863 5863 5863 5864 5864 5864 5865 5865 5865 5865 5865 5864 5864 5864 5864 5863 5863 5862 5862 5861 5861 5860 5859 5859 5858 5858 5857 5856 5856 5855 5854
5842 5843 5843 5844 5845 5846 5847 5848 5851 5851 5852 5853 5854 5855 5855 5856 5857 5858 5858 5858 5859 5859 5859 5860 5861 5860 5860 5861 5861 5861 5861 5861 5860 5860 5860 5860 5859 5859 5858 5858 5857 5856 5856 5855 5854 5854 5853 5852 5851
5836 5837 5838 5838 5839 5840 5841 5842 5845 5845 5846 5847 5848 5849 5850 5850 5851 5852 5853 5853 5853 5854 5854 5855 5855 5856 5856 5857 5857 5857 5857 5857 5857 5857 5857 5856 5856 5856 5855 5855 5854 5854 5853 5852 5851 5851 5850 5849 5848
5829 5831 5831 5832 5832 5834 5836 5835 5837 5839 5840 5841 5842 5843 5844 5845 5845 5846 5846 5847 5848 5848 5849 5849 5850 5851 5852 5852 5852 5852 5852 5852 5853 5853 5853 5853 5852 5852 5852 5851 5851 5850 5849 5849 5848 5847 5847 5846 5845
5824 5825 5825 5825 5826 5827 5829 5829 5831 5832 5833 5834 5835 5836 5837 5838 5839 5840 5840 5841 5842 5842 5843 5843 5844 5845 5846 5847 5847 5848 5848 5848 5848 5848 5848 5848 5848 5848 5848 5848 5847 5846 5846 5845 5844 5844 5843 5843 5842
5817 5818 5819 5819 5820 5821 5822 5822 5825 5825 5826 5827 5828 5829 5830 5831 5832 5833 5834 5834 5835 5836 5836 5837 5838 5839 5840 5841 5842 5842 5843 5843 5843 5843 5843 5843 5844 5844 5844 5843 5843 5842 5842 5841 5841 5840 5839 5839 5838
5811 5811 5813 5813 5813 5813 5814 5816 5818 5819 5819 5820 5821 5822 5823 5824 5825 5826 5827 5827 5828 5829 5830 5830 5831 5832 5833 5835 5836 5837 5837 5838 5838 5838 5838 5838 5839 5839 5839 5839 5838 5838 5837 5837 5836 5836 5835 5834 5833
5805 5806 5806 5806 5806 5805 5807 5809 5811 5812 5812 5814 5814 5815 5816 5817 5818 5818 5819 5820 5821 5822 5823 5823 5824 5824 5826 5827 5829 5831 5831 5832 5832 5832 5832 5832 5833 5833 5833 5833 5833 5833 5832 5832 5831 5831 5830 5830 5829
5798 5799 5799 5799 5799 5799 5800 5804 5804 5805 5805 5806 5807 5807 5808 5809 5810 5810 5812 5813 5814 5815 5816 5816 5817 5817 5819 5821 5822 5824 5825 5825 5825 5825 5826 5826 5826 5827 5827 5828 5827 5827 5827 5826 5826 5826 5825 5824 5823
5791 5792 5793 5793 5793 5793 5793 5798 5797 5797 5798 5798 5799 5799 5800 5801 5802 5803 5804 5805 5806 5807 5808 5809 5810 5811 5813 5814 5815 5816 5818 5818 5818 5818 5819 5819 5820 5821 5821 5821 5821 5821 5821 5820 5820 5820 5819 5819 5818
Wind_Speed
1 1 1 2 3 4 6 8 10 11 12 14 15 15 16 15 14 13 13 12 11 10 10 9 9 9 9 9 9 9 9 9 9 8 7 7 7 7 6 5 4 4 4 3 2 2 1 1 1
3 2 2 1 2 3 4 6 9 10 11 13 14 14 14 14 13 13 13 12 11 10 9 9 9 9 8 9 9 9 9 9 8 7 7 6 6 7 6 5 5 4 4 4 3 3 1 1 1
5 4 3 2 1 2 3 5 7 9 10 11 13 14 14 13 13 12 12 12 11 9 9 9 9 9 9 9 9 8 8 8 7 7 6 6 6 6 6 6 4 4 4 3 3 2 2 1 0
7 6 5 3 1 0 2 4 6 7 9 10 12 14 14 13 13 12 12 12 11 10 9 9 9 9 9 9 9 8 7 7 7 7 6 6 6 5 5 5 4 4 3 2 2 2 1 1 1
8 8 6 5 3 2 1 3 4 5 7 8 10 12 13 12 12 12 12 11 11 10 9 9 9 9 9 9 9 8 7 7 7 6 5 5 6 5 5 5 4 4 3 2 3 2 2 1 1
10 9 7 6 6 4 3 2 3 4 5 7 9 10 12 12 12 11 11 11 10 10 9 9 9 9 9 9 9 9 7 7 6 6 5 5 6 5 5 5 4 4 3 3 3 2 2 2 1
11 10 9 8 7 6 5 3 2 3 5 7 8 10 10 11 11 11 10 10 10 10 9 9 9 9 8 8 9 9 8 7 6 6 5 6 6 6 5 4 4 4 3 2 2 3 2 2 1
12 11 10 9 8 7 7 6 4 4 6 7 7 9 10 11 10 10 9 9 10 9 9 9 9 9 8 8 9 9 9 7 6 6 5 6 6 6 5 4 3 3 3 3 3 2 2 2 2
13 12 11 9 9 9 10 9 7 6 7 7 7 9 10 11 10 9 8 8 9 9 9 9 9 9 9 8 9 8 8 8 7 6 6 6 5 5 5 4 4 3 3 3 2 2 2 3 2
13 13 12 11 11 12 12 11 9 8 8 7 8 9 10 10 10 9 8 8 8 8 8 8 8 8 9 9 8 7 7 7 7 7 6 5 5 5 4 4 3 3 3 3 3 2 3 4 3
15 14 13 12 12 12 13 11 10 10 9 8 8 9 10 11 10 9 8 7 7 7 8 8 7 8 8 8 7 6 6 7 7 7 6 6 5 5 4 3 3 3 3 3 3 2 3 4 4
16 15 14 13 13 13 12 12 12 11 10 9 9 10 10 11 10 9 8 7 7 7 7 7 7 8 8 7 6 6 6 6 6 6 7 6 5 4 4 4 3 3 3 4 3 3 3 4 4
17 16 15 15 15 14 13 13 13 12 12 12 11 10 10 10 9 8 8 7 7 7 7 8 8 8 7 7 6 6 6 6 6 5 6 6 5 4 3 3 3 3 4 4 5 5 5 5 6
18 17 16 16 16 16 15 14 13 12 13 12 12 12 12 10 9 8 8 9 8 8 9 8 8 7 6 7 6 6 6 6 6 5 5 5 5 5 4 3 3 3 4 4 5 5 6 6 7
18 17 16 16 18 18 17 14 13 13 13 13 14 13 12 11 10 10 9 9 9 9 9 9 8 8 7 7 7 7 6 6 6 5 5 5 5 5 5 4 4 4 4 5 5 6 7 7 8
19 18 18 17 19 20 20 17 15 15 15 14 14 14 14 13 11 10 10 10 10 10 10 9 9 8 8 8 8 7 7 7 7 7 7 6 5 5 5 5 5 5 5 6 6 7 8 8 9
20 19 19 19 20 21 22 19 17 17 16 16 16 15 15 15 14 12 11 11 11 11 11 10 9 9 8 8 8 7 8 8 8 8 8 8 7 7 6 6 6 6 7 7 8 8 9 9 9
22 22 21 20 21 22 23 21 20 19 18 17 17 17 17 17 16 15 13 13 12 12 11 11 10 10 10 10 9 8 9 9 8 9 9 8 8 8 8 7 7 8 8 9 9 9 9 9 9
23 23 22 21 22 23 23 22 21 21 20 19 18 19 19 18 18 17 16 15 14 14 13 13 12 11 11 10 9 10 10 10 10 10 10 9 8 8 8 9 9 9 10 10 9 9 9 10 10
24 24 23 22 23 24 24 23 22 21 20 20 20 20 20 20 19 19 17 16 15 15 14 14 14 13 12 11 11 11 11 11 10 11 10 10 9 10 10 10 10 10 11 10 10 10 10 10 11
25 25 24 24 25 25 25 25 23 23 23 22 22 21 21 21 19 19 19 18 17 16 16 16 16 15 14 14 13 13 13 13 12 11 11 11 11 11 11 11 11 11 11 11 11 11 11 12 12
26 26 26 27 27 26 26 27 24 24 24 23 22 21 20 21 21 20 20 20 19 19 17 17 17 17 16 16 15 15 14 14 13 13 12 12 12 12 11 12 12 12 13 13 12 12 12 13 14
26 27 27 28 28 28 28 29 26 25 25 25 24 23 22 22 21 21 21 21 20 20 20 19 19 19 18 17 17 16 16 15 15 15 14 14 13 13 13 13 14 14 14 14 13 12 13 14 14
26 26 27 28 29 30 28 30 28 26 25 25 24 23 23 23 22 21 21 21 22 21 22 21 20 20 20 19 18 17 17 17 17 16 16 15 14 14 14 15 15 15 15 14 14 14 14 14 14
26 27 28 29 29 31 29 31 29 26 26 25 25 24 24 24 24 23 22 22 22 23 23 23 22 22 21 20 19 18 18 18 18 18 17 16 16 15 16 16 16 16 16 16 15 15 15 14 14
26 27 28 30 30 30 30 30 28 27 26 25 26 26 25 25 25 24 23 23 23 24 24 24 24 24 23 21 21 19 19 19 19 19 18 17 17 17 16 17 17 18 17 17 16 16 16 15 15
26 28 28 30 30 31 30 30 29 28 28 27 26 26 26 26 25 24 24 24 25 25 25 25 25 25 24 23 23 21 20 20 21 20 19 19 19 19 18 18 19 19 19 18 18 17 17 17 17
26 27 29 30 31 31 30 29 28 27 28 28 27 26 25 26 27 27 26 26 26 26 25 26 25 24 24 23 23 22 21 21 21 20 19 19 20 20 20 20 20 20 20 19 19 18 18 18 19
26 27 28 29 30 31 31 30 28 27 26 27 28 28 28 27 27 27 27 27 26 25 25 25 25 24 24 23 22 22 22 22 21 20 20 20 21 21 21 21 21 21 21 21 20 20 20 20 20
26 27 27 28 30 31 32 30 28 27 27 26 27 27 28 27 26 27 28 27 26 26 25 25 26 25 24 24 24 23 23 23 23 22 22 21 21 22 21 22 22 22 22 21 21 21 21 21 21
Wind_Direction
182 177 147 87 78 63 56 47 41 43 37 34 35 33 26 21 18 15 12 12 13 12 14 21 28 33 35 36 37 37 37 36 34 33 32 31 34 34 30 31 29 19 16 31 39 48 88 124 155
217 214 206 171 90 58 57 43 38 42 36 32 32 30 25 19 17 14 12 10 9 10 14 20 27 32 35 34 34 34 34 33 31 27 29 28 32 34 32 31 32 24 19 26 38 54 70 125 157
231 231 225 222 180 80 53 39 36 37 32 33 31 25 19 14 12 12 11 11 11 18 21 22 26 29 28 29 29 27 28 31 28 25 26 20 24 28 26 24 25 26 24 27 32 47 50 42 197
241 239 234 231 227 319 38 38 32 32 28 28 27 22 16 16 14 11 10 16 19 22 22 23 25 25 24 25 27 27 25 25 23 23 23 14 14 16 18 18 20 19 16 36 55 63 43 61 71
243 237 236 229 241 270 318 11 28 29 26 24 24 21 18 16 15 12 11 14 17 18 21 23 24 23 25 26 26 23 22 23 21 23 19 8 5 4 4 6 6 13 19 19 51 53 50 52 50
243 237 237 229 239 254 268 313 5 18 18 17 18 17 13 10 11 11 12 13 16 18 22 23 23 22 24 25 25 24 25 23 21 20 16 13 8 3 359 355 356 3 2 19 31 32 16 8 338
239 233 232 231 239 245 258 270 302 335 349 3 8 8 8 6 6 7 9 8 10 14 17 19 19 19 21 24 24 21 18 17 17 15 17 21 16 10 5 0 0 356 354 347 5 20 12 353 355
241 238 234 235 241 248 257 269 279 310 326 341 355 360 2 0 1 1 2 4 5 10 13 15 17 17 20 21 18 14 14 16 19 20 24 29 25 22 18 10 5 359 348 346 349 354 349 336 326
243 241 239 241 246 250 259 270 282 295 307 321 338 348 353 354 355 354 356 358 0 3 7 13 15 15 13 12 11 13 15 19 17 20 23 22 18 15 13 9 4 359 352 344 336 328 323 318 308
241 242 239 241 247 252 259 267 277 286 295 301 320 332 339 342 347 346 347 347 351 357 2 5 7 8 6 3 4 7 10 17 21 18 17 18 16 11 5 2 356 353 341 330 327 328 324 316 305
239 241 239 240 247 255 255 260 275 285 292 297 309 320 328 329 336 337 335 337 339 347 353 359 0 2 3 0 358 360 11 18 19 15 14 14 9 5 359 349 346 340 328 325 334 332 309 308 298
239 238 237 238 245 251 254 261 271 281 284 286 294 304 313 319 325 325 324 326 334 337 343 348 353 355 356 356 355 2 4 8 13 14 14 11 5 0 355 345 335 331 324 320 318 314 307 302 297
238 238 239 241 244 247 254 263 271 278 277 280 282 288 293 303 315 316 317 323 325 323 324 331 338 344 348 352 356 359 349 357 5 4 6 8 5 359 348 337 335 331 329 323 312 312 309 304 304
242 240 241 243 246 247 252 258 267 272 274 275 276 280 282 290 301 304 308 307 312 312 309 312 321 327 333 341 347 348 340 340 346 351 352 357 1 359 344 330 324 322 318 319 315 315 306 301 305
244 241 241 246 248 251 252 255 261 263 264 268 271 274 273 282 292 299 300 300 301 304 302 302 309 317 322 324 335 336 332 335 341 343 338 339 347 350 346 324 311 307 306 306 308 304 306 304 304
246 244 241 246 249 251 255 255 256 260 261 265 269 272 274 279 286 288 290 294 295 298 300 299 300 303 308 315 317 327 326 333 341 335 329 330 328 327 332 331 317 305 301 299 298 296 299 300 304
247 247 246 247 253 254 255 256 255 259 261 262 265 270 274 279 281 283 284 287 286 287 290 293 293 294 296 303 306 319 317 315 321 325 321 321 322 316 315 316 317 310 305 301 297 291 291 295 300
249 250 249 249 253 254 256 257 255 257 259 260 262 266 271 277 279 279 281 283 283 279 280 284 286 287 289 291 296 304 310 303 304 312 315 312 314 313 309 308 309 305 307 307 302 296 290 292 294
251 252 252 250 253 255 256 254 254 255 256 257 259 264 269 272 274 276 278 279 279 276 273 275 278 279 281 284 287 292 299 297 296 301 307 306 307 308 308 306 305 303 303 306 308 302 299 297 296
253 254 255 254 254 256 257 254 254 254 254 257 259 262 266 270 272 274 276 276 277 275 274 270 271 273 278 282 283 285 290 291 288 294 298 298 301 302 303 300 301 302 301 303 303 300 301 302 303
257 258 257 255 257 259 260 256 257 256 254 256 259 260 263 267 269 271 271 274 274 272 272 269 268 270 274 278 281 280 281 283 279 284 287 288 292 295 296 297 296 298 300 302 300 296 298 301 301
258 258 257 256 257 259 261 260 258 259 256 257 259 260 263 267 270 271 270 270 270 269 270 268 268 270 270 273 275 276 274 276 277 280 285 285 287 289 290 294 294 295 296 297 296 294 296 298 299
258 257 257 257 257 259 260 263 262 261 259 260 262 262 262 265 268 271 270 267 269 267 267 266 267 268 268 268 271 273 272 272 275 278 282 282 282 284 287 290 292 294 293 292 292 292 295 297 298
257 255 255 256 257 258 261 263 262 261 262 262 263 260 260 262 264 266 267 267 267 265 264 264 265 265 266 266 267 270 272 271 272 276 280 279 279 280 283 286 290 292 292 290 290 291 293 295 296
257 256 256 257 258 260 261 264 265 263 262 263 264 262 261 262 263 262 263 264 265 263 264 263 264 265 264 262 264 266 269 269 272 274 277 276 275 275 279 282 286 288 290 289 287 288 290 291 292
256 257 259 261 263 264 262 263 265 264 264 265 264 263 262 263 263 260 260 261 261 262 263 265 264 263 262 260 261 263 267 269 273 274 274 272 271 272 276 280 284 285 286 287 286 284 286 288 290
258 258 261 264 265 265 264 265 264 265 266 265 266 265 264 264 263 260 260 259 257 258 260 262 263 263 261 260 259 261 264 266 269 271 272 271 270 270 274 277 280 281 283 283 285 284 284 286 288
259 259 260 262 265 267 266 265 266 267 265 265 265 264 265 262 260 260 260 258 257 258 258 260 263 263 260 259 259 259 262 265 266 267 268 269 270 270 271 273 277 278 280 281 281 282 284 287 287
259 259 260 262 264 267 269 269 270 271 268 266 265 265 263 262 259 258 257 255 256 256 258 261 261 260 256 256 258 258 261 264 264 264 265 268 270 269 269 271 274 276 278 278 279 280 281 283 285
259 260 261 262 264 267 269 271 270 271 268 266 267 266 265 263 262 260 258 256 260 261 261 260 258 255 255 257 260 260 260 261 263 264 266 267 268 269 268 269 272 274 277 279 279 279 281 283 284